Tracking 18843 objects as of 20-November-2017
HD Live streaming from Space Station
objects crossing your sky now

FENGYUN 1C DEB

Track FENGYUN 1C DEB now!
10-day predictions


NORAD ID: 37061
Int'l Code: 1999-025EEV
Perigee: 613.0 km
Apogee: 2,008.5 km
Inclination: 98.0 °
Period: 111.7 minutes
Semi major axis: 7681 km
RCS: 0.0064 m2 (small)
Launch date: May 10, 1999
Source: People's Republic of China (PRC)
Launch site: Taiyaun Space Center, China (TSC)

Note: This is SATELLITE DEBRIS
aabbcc
Your satellite tracking list
Your tracking list is empty




NASA's NSSDC Master Catalog

Two Line Element Set (TLE):
1 37061U 99025EEV 17322.36457787  .00000782  00000-0  47041-3 0  9990
2 37061  98.0489  10.2368 0908291 251.8141  98.2115 12.89473076660373
Source of the keplerian elements: AFSPC